Content
SEND FEEDBACK

Daily
Averages
Monthly
Summary
United Kingdom

LONDON, ENGLAND


Home > Europe > United Kingdom > England
Elevation: 203 feet     Latitude: 51 09N     Longitude: 000 11W

WEATHER
 
SELECT A DAY
Number of Records: 292,281;   Date Range: 7/1/96 - 7/9/14
 
SHARE

PRINT THIS DATA

[ ← Previous Day ]
WEATHER ALMANAC - APRIL 4, 2013
[ Next Day → ]
[ °C ]   °F
Weather ElementAverageHighLow
Temperature34.8 °F35.6 °F (12:50 am)33.8 °F (2:50 am)
Dewpoint28.9 °F32 °F (8:20 am)24.8 °F (9:20 pm)
Humidity79.5 %93 % (2:50 pm)70 % (12:50 am)
Barometer29.92 in29.95 in (12:50 am)29.89 in (2:50 pm)
Wind Speed14.2 mph19.6 mph (10:20 am)
Wind Gust34.5 mph (11:50 am)
Weather ElementAverage
Visibility5.2 mi
Wind DirectionNNE (31.9 °)

Weather ElementTotal
Precipitation---
Heating Degree Days30.3 (Base 65)
Averaged from 47 records on April 4, 2013
WEATHER CONDITIONS BREAKOUT
WIND DIRECTION BREAKOUT
WEATHER BY HOUR - APRIL 4, 2013
[ °C ]   °F
Local TimeTemperatureDewpointHumidityBarometerVisibilityWind DirectionWind SpeedGust SpeedPrecipitationEventsConditions
12:50 AM35.6 °F26.6 °F70 %29.95 in6.2 miNNE (30°)12.7 mphSnowLight Snow Grains
1:20 AM35.6 °F26.6 °F70 %29.95 inNE (40°)13.8 mphClear
1:50 AM35.6 °F28.4 °F75 %29.95 in6.2 miNNE (30°)13.8 mphPartly Cloudy
2:20 AM35.6 °F28.4 °F75 %29.95 in6.2 miNNE (30°)11.5 mphMostly Cloudy
2:50 AM33.8 °F28.4 °F81 %29.95 in6.2 miNE (40°)8.1 mphMostly Cloudy
3:20 AM33.8 °F28.4 °F81 %29.92 in6.2 miNNE (20°)10.4 mphScattered Clouds
3:50 AM33.8 °F28.4 °F81 %29.92 in6.2 miNNE (20°)10.4 mphPartly Cloudy
4:20 AM33.8 °F28.4 °F81 %29.92 in6.2 miNNE (30°)10.4 mphScattered Clouds
4:50 AM33.8 °F28.4 °F81 %29.92 in5.6 miNNE (30°)11.5 mphPartly Cloudy
5:20 AM33.8 °F30.2 °F87 %29.92 in5.6 miNNE (30°)12.7 mphScattered Clouds
5:50 AM33.8 °F30.2 °F87 %29.92 in5.0 miNNE (20°)12.7 mphMostly Cloudy
6:20 AM33.8 °F28.4 °F81 %29.92 in4.3 miNNE (20°)12.7 mphScattered Clouds
6:50 AM33.8 °F30.2 °F87 %29.92 in4.3 miNNE (20°)13.8 mphPartly Cloudy
7:20 AM35.6 °F30.2 °F81 %29.92 in4.3 miNNE (30°)11.5 mphOvercast
7:50 AM35.6 °F30.2 °F81 %29.92 in3.1 miNNE (20°)12.7 mphSnowLight Snow
8:20 AM35.6 °F32.0 °F87 %29.92 in3.7 miNE (40°)12.7 mphSnowLight Snow Showers
8:50 AM35.6 °F30.2 °F81 %29.92 in5.0 miNE (40°)16.1 mphRainLight Rain
9:20 AM35.6 °F30.2 °F81 %29.92 in6.2 miNE (40°)15.0 mphOvercast
9:50 AM35.6 °F28.4 °F75 %29.92 in6.2 miNE (40°)16.1 mphMostly Cloudy
10:20 AM35.6 °F26.6 °F70 %29.92 in6.2 miNE (40°)19.6 mphMostly Cloudy
10:50 AM35.6 °F26.6 °F70 %29.92 in6.2 miNE (40°)19.6 mphMostly Cloudy
11:20 AM35.6 °F28.4 °F75 %29.92 in5.6 miNE (40°)17.3 mphOvercast
11:50 AM35.6 °F28.4 °F75 %29.92 in5.6 miNE (50°)18.4 mph34.5 mphSnowLight Snow Grains
12:20 PM35.6 °F28.4 °F75 %29.92 in4.3 miNE (40°)15.0 mphSnowLight Snow
12:50 PM35.6 °F28.4 °F75 %29.92 in4.3 miNNE (30°)13.8 mph26.5 mphSnowLight Snow
1:20 PM35.6 °F30.2 °F81 %29.92 in3.1 miNNE (20°)13.8 mphSnowLight Snow
1:50 PM35.6 °F30.2 °F81 %29.92 inNNE (30°)13.8 mphSnowLight Snow
2:20 PM35.6 °F32.0 °F87 %29.92 in2.8 miNNE (30°)11.5 mphSnowLight Snow Showers
2:50 PM33.8 °F32.0 °F93 %29.89 in1.9 miNNE (30°)17.3 mphSnowLight Snow Showers
3:20 PM35.6 °F32.0 °F87 %29.89 in4.3 miNE (40°)18.4 mphSnowLight Snow
3:50 PM35.6 °F30.2 °F81 %29.89 in5.0 miNE (40°)19.6 mph31.1 mphSnowLight Snow Showers
4:20 PM33.8 °F30.2 °F87 %29.89 in4.3 miNE (50°)16.1 mphSnowLight Snow
4:50 PM35.6 °F30.2 °F81 %29.89 in4.3 miNNE (30°)16.1 mphSnowLight Snow Showers
5:20 PM35.6 °F30.2 °F81 %29.89 in5.0 miNE (40°)18.4 mphSnowLight Snow Showers
5:50 PM35.6 °F32.0 °F87 %29.89 in5.6 miNE (40°)16.1 mphSnowLight Snow Showers
6:20 PM33.8 °F32.0 °F93 %29.89 in3.7 miNNE (30°)13.8 mphSnowLight Snow Showers
6:50 PM33.8 °F30.2 °F87 %29.89 in5.6 miNNE (30°)16.1 mphSnowLight Snow Showers
7:20 PM35.6 °F30.2 °F81 %29.89 in6.2 miNNE (30°)15.0 mphMostly Cloudy
7:50 PM35.6 °F28.4 °F75 %29.92 in6.2 miNNE (30°)15.0 mphMostly Cloudy
8:20 PM33.8 °F28.4 °F81 %29.92 in6.2 miNNE (30°)13.8 mphScattered Clouds
8:50 PM33.8 °F26.6 °F75 %29.92 in6.2 miNNE (30°)12.7 mphPartly Cloudy
9:20 PM33.8 °F24.8 °F70 %29.92 in6.2 miNNE (30°)11.5 mphPartly Cloudy
9:50 PM33.8 °F24.8 °F70 %29.92 inNNE (30°)13.8 mphClear
10:20 PM33.8 °F24.8 °F70 %29.92 in6.2 miNNE (30°)13.8 mphPartly Cloudy
10:50 PM33.8 °F26.6 °F75 %29.92 in6.2 miNNE (30°)11.5 mphMostly Cloudy
11:20 PM33.8 °F26.6 °F75 %29.92 in6.2 miNNE (20°)15.0 mphMostly Cloudy
11:50 PM33.8 °F26.6 °F75 %29.92 in6.2 miNNE (20°)13.8 mphMostly Cloudy
Hourly data recorded from EGKK, located miles away from London, England







STORIES FROM OUR PARTNERS